Hagerstown, MD

2:00 AM EDT on October 23, 2019 (GMT -0400)
Hagerstown Regional-Henson

Weather History for KHGR - August, 2019

Change the Weather History Date:

Wednesday, August 21, 2019

  Actual Average Record
Temperature  
Mean Temperature 81 °F 73 °F  
Max Temperature 91 °F 83 °F 91 °F (2019)
Min Temperature 71 °F 63 °F 54 °F (2008)
Degree Days  
Heating Degree Days 0 0  
Month to date heating degree days 0 0  
Since 1 June heating degree days 5 18  
Since 1 July heating degree days 0 0  
Cooling Degree Days 16 8  
Month to date cooling degree days 274 190  
Year to date cooling degree days 1141 796  
Since 1 June cooling degree days 959 720  
Growing Degree Days 30 (Base 50)    
Moisture  
Dew Point 67 °F    
Average Humidity 64    
Maximum Humidity 84    
Minimum Humidity 44    
Precipitation  
Precipitation 0.00 in 0.11 in 1.02 in (2018)
Month to date precipitation 1.14 2.11  
Year to date precipitation 27.11 25.60  
Sea Level Pressure  
Sea Level Pressure 29.96 in    
Wind  
Wind Speed 7 mph (SW)    
Max Wind Speed 22 mph    
Max Gust Speed 26 mph    
Visibility 10 miles    
Events      
T = Trace of Precipitation, MM = Missing Value Source: NWS Daily Summary

Daily Weather History Graph

Daily Weather History Graph

Search for Another Location

Airport or City:

Astronomy

Aug. 21, 2019 Rise Set
Actual Time 6:28 AM EDT 7:59 PM EDT
Civil Twilight 6:00 AM EDT 8:27 PM EDT
Nautical Twilight 5:25 AM EDT 9:01 PM EDT
Astronomical Twilight 4:49 AM EDT 9:37 PM EDT
Moon 11:16 PM EDT (8/21) 12:01 PM EDT (8/21)
Length of Visible Light 14h 27m
Length of Day
13h 30m
Waning Gibbous, 69% of the Moon is Illuminated
Aug 21
Waning Gibbous
Aug 23
Last Quarter
Aug 30
New
Sep 5
First Quarter
Sep 14
Full

Hourly Weather History & Observations

Time (EDT) Temp. Heat Index Dew Point Humidity Pressure Visibility Wind Dir Wind Speed Gust Speed Precip Events Conditions
12:53 AM 73.0 °F - 66.9 °F 81% 30.04 in 10.0 mi SE 5.8 mph - N/A   Clear
1:53 AM 73.0 °F - 66.9 °F 81% 30.04 in 10.0 mi SSE 6.9 mph - N/A   Clear
2:53 AM 73.0 °F - 66.9 °F 81% 30.02 in 10.0 mi SE 4.6 mph - N/A   Partly Cloudy
3:53 AM 72.0 °F - 66.9 °F 84% 30.00 in 10.0 mi Calm Calm - N/A   Clear
4:53 AM 73.0 °F - 66.9 °F 81% 29.99 in 10.0 mi South 6.9 mph - N/A   Clear
5:53 AM 71.1 °F - 66.9 °F 87% 29.99 in 10.0 mi WSW 5.8 mph - N/A   Clear
6:53 AM 71.1 °F - 66.9 °F 87% 29.98 in 10.0 mi SSE 8.1 mph - N/A   Mostly Cloudy
7:53 AM 73.0 °F - 66.9 °F 81% 30.00 in 10.0 mi SSW 4.6 mph - N/A   Mostly Cloudy
8:53 AM 75.0 °F - 66.9 °F 76% 29.99 in 10.0 mi SSW 5.8 mph - N/A   Mostly Cloudy
9:53 AM 77.0 °F - 68.0 °F 74% 29.98 in 10.0 mi SW 5.8 mph - N/A   Mostly Cloudy
10:53 AM 81.0 °F 83.8 °F 68.0 °F 65% 29.99 in 10.0 mi West 5.8 mph - N/A   Partly Cloudy
11:53 AM 84.9 °F 87.1 °F 66.0 °F 53% 29.96 in 10.0 mi Variable 4.6 mph - N/A   Partly Cloudy
12:53 PM 87.1 °F 89.2 °F 66.0 °F 49% 29.94 in 10.0 mi SW 9.2 mph - N/A   Scattered Clouds
1:53 PM 88.0 °F 90.3 °F 66.0 °F 48% 29.93 in 10.0 mi South 8.1 mph - N/A   Scattered Clouds
2:53 PM 89.1 °F 91.0 °F 64.9 °F 45% 29.91 in 10.0 mi Variable 4.6 mph - N/A   Scattered Clouds
3:50 PM 84.2 °F 88.4 °F 69.8 °F 62% 29.90 in 10.0 mi South 12.7 mph - N/A   Mostly Cloudy
3:53 PM 84.9 °F 88.8 °F 69.1 °F 59% 29.91 in 10.0 mi South 11.5 mph - N/A   Mostly Cloudy
4:53 PM 86.0 °F 89.4 °F 68.0 °F 55% 29.89 in 10.0 mi South 12.7 mph - N/A   Clear
5:53 PM 86.0 °F 89.4 °F 68.0 °F 55% 29.89 in 10.0 mi SSE 5.8 mph - N/A   Partly Cloudy
6:53 PM 86.0 °F 89.4 °F 68.0 °F 55% 29.89 in 10.0 mi WNW 6.9 mph - N/A   Partly Cloudy
7:53 PM 84.0 °F 85.8 °F 64.9 °F 53% 29.90 in 10.0 mi NW 6.9 mph - N/A   Mostly Cloudy
8:53 PM 82.0 °F 83.8 °F 64.9 °F 56% 29.92 in 10.0 mi NW 6.9 mph - N/A   Overcast
9:53 PM 82.0 °F 83.4 °F 64.0 °F 54% 29.94 in 10.0 mi WNW 8.1 mph - N/A   Mostly Cloudy
10:53 PM 81.0 °F 82.5 °F 64.0 °F 56% 29.94 in 10.0 mi West 5.8 mph - N/A   Mostly Cloudy
11:53 PM 78.1 °F - 64.0 °F 62% 29.95 in 10.0 mi WNW 4.6 mph - N/A   Scattered Clouds